EW5925 Weather Reports


time (UTC)temp
C
wind
direction
speed
KPH
gust
KPH
rain 1hr
cm
rain 24hr
cm
rain mn
cm
humidity
%
barometer
mb
20260904123740 18 124 1.6 4.8 0.00 0.03 0.03 91 1019.7
20260904123231 18 154 1.6 8.0 0.00 0.03 0.03 91 1019.8
20260904122731 18 185 3.2 8.0 0.00 0.03 0.03 91 1019.8
20260904122227 18 129 3.2 6.4 0.00 0.03 0.03 91 1019.9
20260904121726 18 185 3.2 9.7 0.00 0.03 0.03 91 1019.8
20260904121238 18 125 3.2 11.3 0.00 0.03 0.03 91 1019.8
20260904120724 18 157 3.2 11.3 0.00 0.03 0.03 91 1019.9
20260904120224 18 165 3.2 11.3 0.00 0.03 0.03 91 1019.9
20260904115942 19 140 3.2 11.3 0.00 0.03 0.03 91 1019.9
20260904115216 19 127 3.2 11.3 0.00 0.03 0.03 90 1020.0
20260904114715 19 125 3.2 11.3 0.00 0.03 0.03 90 1019.9
20260904114213 19 137 3.2 8.0 0.00 0.03 0.03 90 1019.9
20260904113712 19 124 3.2 8.0 0.00 0.03 0.03 90 1020.0
20260904113214 19 117 3.2 9.7 0.00 0.03 0.03 90 1020.0
20260904112911 19 126 3.2 8.0 0.00 0.03 0.03 90 1019.9
20260904112124 19 127 3.2 6.4 0.00 0.03 0.03 90 1019.9
20260904111555 19 117 3.2 8.0 0.00 0.03 0.03 90 1019.9
20260904111031 19 115 3.2 8.0 0.00 0.03 0.03 90 1019.9
20260904110901 20 116 3.2 8.0 0.00 0.03 0.03 89 1019.8
20260904110524 19 142 3.2 8.0 0.00 0.03 0.03 89 1019.9
20260904105410 20 114 3.2 8.0 0.00 0.03 0.03 89 1019.7
20260904104847 20 116 1.6 4.8 0.00 0.03 0.03 89 1019.7
20260904104320 20 116 1.6 4.8 0.00 0.03 0.03 89 1019.7
20260904103753 20 116 3.2 8.0 0.00 0.03 0.03 89 1019.7
20260904103443 20 116 3.2 8.0 0.00 0.03 0.03 88 1019.6
20260904102657 20 114 3.2 8.0 0.00 0.03 0.03 88 1019.6
20260904102353 20 121 3.2 9.7 0.00 0.03 0.03 88 1019.6
20260904101608 20 112 3.2 9.7 0.00 0.03 0.03 88 1019.5
20260904101327 20 114 3.2 8.0 0.00 0.03 0.03 88 1019.5
20260904100606 20 116 3.2 8.0 0.00 0.03 0.03 87 1019.4
20260904100111 20 125 1.6 4.8 0.00 0.03 0.03 87 1019.3
20260904095603 21 125 1.6 4.8 0.00 0.03 0.03 87 1019.4
20260904095102 21 129 1.6 4.8 0.00 0.03 0.03 87 1019.3
20260904094558 21 129 1.6 4.8 0.00 0.03 0.03 87 1019.3
20260904094058 21 112 0.0 4.8 0.00 0.03 0.03 87 1019.2
20260904093559 21 112 1.6 4.8 0.00 0.03 0.03 86 1019.2
20260904093057 21 112 1.6 4.8 0.00 0.03 0.03 86 1019.2
20260904092555 21 112 1.6 4.8 0.00 0.03 0.03 86 1019.1
20260904092317 21 112 1.6 4.8 0.00 0.03 0.03 86 1019.1
20260904091814 21 112 1.6 3.2 0.00 0.03 0.03 86 1019.1
20260904091051 21 112 0.0 3.2 0.00 0.03 0.03 86 1018.9
20260904090817 21 112 0.0 3.2 0.00 0.03 0.03 85 1018.9
20260904090104 21 112 0.0 1.6 0.00 0.03 0.03 85 1018.9
20260904085546 21 112 0.0 4.8 0.00 0.03 0.03 85 1018.8
20260904085306 21 112 1.6 4.8 0.00 0.03 0.03 85 1018.7
20260904084542 21 112 1.6 4.8 0.00 0.03 0.03 85 1018.7
20260904084303 21 112 1.6 4.8 0.00 0.03 0.03 85 1018.7
20260904083515 21 112 1.6 4.8 0.00 0.03 0.03 85 1018.7
20260904083015 22 114 1.6 6.4 0.00 0.03 0.03 85 1018.6
20260904082510 22 114 1.6 6.4 0.00 0.03 0.03 84 1018.7
20260904082008 22 109 1.6 6.4 0.00 0.03 0.03 84 1018.5
20260904081519 22 116 1.6 8.0 0.00 0.03 0.03 83 1018.5
20260904081006 22 116 1.6 8.0 0.00 0.03 0.03 83 1018.5
20260904080730 22 116 1.6 8.0 0.00 0.03 0.03 83 1018.4
20260904080008 22 116 1.6 8.0 0.00 0.03 0.03 82 1018.3
20260904075507 22 115 1.6 11.3 0.00 0.03 0.03 82 1018.2
20260904075005 22 143 3.2 11.3 0.00 0.03 0.03 81 1018.2
20260904074727 22 124 3.2 11.3 0.00 0.03 0.03 81 1018.0
20260904073957 22 120 3.2 11.3 0.00 0.03 0.03 80 1017.9
20260904073728 22 115 3.2 11.3 0.00 0.03 0.03 79 1017.9
20260904072953 23 132 4.8 11.3 0.00 0.03 0.03 79 1017.9
20260904072449 23 122 4.8 11.3 0.00 0.03 0.03 78 1017.8
20260904071947 23 116 4.8 12.9 0.00 0.03 0.03 77 1017.8
20260904071449 23 123 4.8 14.5 0.00 0.03 0.03 76 1017.8
20260904070945 23 131 3.2 14.5 0.00 0.03 0.03 75 1017.8
20260904070445 23 125 3.2 11.3 0.00 0.03 0.03 74 1017.7
20260904065945 23 104 3.2 11.3 0.00 0.03 0.03 73 1017.7
20260904065443 24 122 3.2 11.3 0.00 0.03 0.03 72 1017.5
20260904065210 24 114 4.8 11.3 0.00 0.03 0.03 72 1017.5
20260904064457 24 114 3.2 11.3 0.00 0.03 0.03 71 1017.5
20260904063938 24 114 3.2 20.9 0.00 0.03 0.03 70 1017.5
20260904063435 25 94 4.8 20.9 0.00 0.03 0.03 68 1017.4
20260904063417 25 128 4.8 20.9 0.00 0.03 0.03 67 1017.4
20260904062431 25 114 3.2 20.9 0.00 0.03 0.03 65 1017.3
20260904061931 25 116 3.2 8.0 0.00 0.03 0.03 65 1017.3
20260904061431 26 67 3.2 9.7 0.00 0.03 0.03 64 1017.2
20260904060933 26 118 4.8 12.9 0.00 0.03 0.03 62 1017.1
20260904060417 26 110 3.2 14.5 0.00 0.03 0.03 62 1017.0
20260904055915 26 111 3.2 14.5 0.00 0.03 0.03 61 1017.0
20260904055409 26 112 4.8 19.3 0.00 0.03 0.03 60 1017.0
20260904055131 27 107 4.8 19.3 0.00 0.03 0.03 58 1017.0
20260904054405 27 139 4.8 17.7 0.00 0.03 0.03 57 1017.0
20260904054124 27 120 4.8 17.7 0.00 0.03 0.03 57 1017.0
20260904053632 27 114 6.4 17.7 0.00 0.03 0.03 54 1016.9
20260904052903 28 110 6.4 16.1 0.00 0.03 0.03 54 1016.9
20260904052623 28 124 4.8 16.1 0.00 0.03 0.03 54 1016.8
20260904051900 28 131 4.8 16.1 0.00 0.03 0.03 53 1016.9
20260904051401 28 122 4.8 14.5 0.00 0.03 0.03 52 1016.8
20260904050903 28 92 4.8 17.7 0.00 0.03 0.03 49 1016.8
20260904050341 29 124 4.8 17.7 0.00 0.03 0.03 46 1016.8
20260904050106 29 109 3.2 14.5 0.00 0.03 0.03 46 1016.7
20260904045327 29 114 3.2 14.5 0.00 0.03 0.03 46 1016.8
20260904045042 29 126 6.4 17.7 0.00 0.03 0.03 46 1016.8
20260904044318 30 118 4.8 17.7 0.00 0.03 0.03 45 1016.8
20260904043820 30 129 4.8 17.7 0.00 0.03 0.03 43 1016.8
20260904043319 30 66 4.8 17.7 0.00 0.03 0.03 41 1016.9
20260904042816 30 121 3.2 12.9 0.00 0.03 0.03 40 1016.8
20260904042316 30 110 3.2 12.9 0.00 0.03 0.03 39 1016.8
20260904041818 31 89 3.2 12.9 0.00 0.03 0.03 38 1016.9
20260904041315 31 46 3.2 12.9 0.00 0.03 0.03 37 1017.0
20260904040814 31 102 3.2 12.9 0.00 0.03 0.03 37 1017.1
20260904040313 31 80 3.2 17.7 0.00 0.03 0.03 38 1017.0
20260904040039 31 116 3.2 17.7 0.00 0.03 0.03 37 1017.0
20260904035803 31 116 3.2 11.3 0.00 0.03 0.03 37 1017.0
20260904035024 31 126 3.2 14.5 0.00 0.03 0.03 37 1017.1
20260904034307 31 61 1.6 14.5 0.00 0.03 0.03 37 1017.2
20260904033759 32 79 3.2 14.5 0.00 0.03 0.03 37 1017.1
20260904033257 32 53 4.8 14.5 0.00 0.03 0.03 36 1017.1
20260904032754 32 60 4.8 11.3 0.00 0.03 0.03 38 1017.2
20260904032252 32 49 4.8 11.3 0.00 0.03 0.03 38 1017.2
20260904031750 33 45 3.2 11.3 0.00 0.03 0.03 34 1017.2
20260904031514 33 324 1.6 11.3 0.00 0.03 0.03 29 1017.3
20260904031332 33 324 1.6 11.3 0.00 0.03 0.03 29 1017.3
20260904030747 33 195 1.6 11.3 0.00 0.03 0.03 29 1017.4
20260904030245 33 243 1.6 6.4 0.00 0.03 0.03 29 1017.5
20260904030001 33 254 3.2 8.0 0.00 0.03 0.03 28 1017.5
20260904025236 32 313 3.2 11.3 0.00 0.03 0.03 31 1017.6
20260904024735 32 106 1.6 11.3 0.00 0.03 0.03 28 1017.6
20260904024236 32 206 4.8 14.5 0.00 0.03 0.03 30 1017.7
20260904023710 32 278 4.8 14.5 0.00 0.03 0.03 32 1017.8
20260904023212 32 310 3.2 8.0 0.00 0.03 0.03 32 1017.9
20260904022710 32 14 1.6 8.0 0.00 0.03 0.03 32 1018.0
20260904022428 32 82 3.2 11.3 0.00 0.03 0.03 33 1018.0
20260904021704 32 120 1.6 11.3 0.00 0.03 0.03 32 1018.1
20260904021202 31 118 3.2 12.9 0.00 0.03 0.03 34 1018.2
20260904020700 31 185 3.2 12.9 0.00 0.03 0.03 33 1018.3
20260904020201 31 233 3.2 8.0 0.00 0.03 0.03 34 1018.4
20260904015659 31 199 3.2 8.0 0.00 0.03 0.03 33 1018.6
20260904015159 31 324 1.6 8.0 0.00 0.03 0.03 33 1018.7
20260904014656 31 234 3.2 12.9 0.00 0.03 0.03 34 1018.8
20260904014155 31 260 3.2 12.9 0.00 0.03 0.03 36 1018.9
20260904013656 31 180 3.2 8.0 0.00 0.03 0.03 37 1019.0
20260904013130 31 233 3.2 8.0 0.00 0.03 0.03 37 1019.1
20260904012605 30 215 3.2 6.4 0.00 0.03 0.03 38 1019.2
20260904012051 30 223 3.2 8.0 0.00 0.03 0.03 38 1019.3
20260904011514 30 114 1.6 11.3 0.00 0.03 0.03 37 1019.4
20260904011227 30 243 3.2 11.3 0.00 0.03 0.03 38 1019.6
20260904010420 30 311 3.2 8.0 0.00 0.03 0.03 40 1019.7
20260904005853 30 223 3.2 8.0 0.00 0.03 0.03 43 1019.8
20260904005327 30 251 3.2 8.0 0.00 0.03 0.03 41 1019.8
20260904004802 29 264 1.6 6.4 0.00 0.03 0.03 42 1020.0
20260904004237 29 254 1.6 4.8 0.00 0.03 0.03 43 1020.0
20260904003711 28 251 1.6 8.0 0.00 0.03 0.03 45 1020.1
20260904003145 28 245 3.2 9.7 0.00 0.03 0.03 45 1020.2
20260904002623 28 240 4.8 14.5 0.00 0.03 0.03 46 1020.2
20260904002059 28 202 3.2 17.7 0.00 0.03 0.03 45 1020.3
20260904001540 27 264 3.2 17.7 0.00 0.03 0.03 46 1020.3
20260904001040 27 262 4.8 17.7 0.00 0.03 0.03 47 1020.4
20260904000809 27 264 4.8 17.7 0.00 0.03 0.03 47 1020.4
20260904000311 27 218 4.8 11.3 0.00 0.03 0.03 48 1020.4
20260903235537 27 233 3.2 11.3 0.00 0.03 0.03 48 1020.4
20260903235256 26 235 3.2 14.5 0.00 0.03 0.03 49 1020.4
20260903234536 26 246 4.8 14.5 0.00 0.03 0.03 50 1020.5
20260903234033 26 258 3.2 12.9 0.00 0.03 0.03 51 1020.4
20260903233534 26 245 3.2 12.9 0.00 0.03 0.03 52 1020.4
20260903233033 25 247 4.8 12.9 0.00 0.03 0.03 54 1020.5
20260903232532 25 249 4.8 16.1 0.00 0.03 0.03 55 1020.5
20260903232032 25 249 4.8 16.1 0.00 0.03 0.03 56 1020.5
20260903231539 24 216 4.8 14.5 0.00 0.03 0.03 59 1020.6
20260903231026 24 281 3.2 8.0 0.00 0.03 0.03 61 1020.6
20260903230524 23 262 3.2 6.4 0.00 0.03 0.03 63 1020.6
20260903230027 23 222 3.2 8.0 0.00 0.03 0.03 64 1020.6
20260903225512 23 214 4.8 16.1 0.00 0.03 0.03 65 1020.6
20260903225457 22 206 4.8 16.1 0.00 0.03 0.03 66 1020.7
20260903224955 22 231 3.2 12.9 0.00 0.03 0.03 66 1020.6
20260903224009 22 214 4.8 14.5 0.00 0.03 0.03 68 1020.6
20260903223728 21 231 4.8 14.5 0.00 0.03 0.03 69 1020.6
20260903223008 21 235 4.8 14.5 0.00 0.03 0.03 71 1020.6
20260903222728 21 214 4.8 14.5 0.00 0.03 0.03 72 1020.6
20260903222008 20 175 4.8 16.1 0.00 0.03 0.03 75 1020.6
20260903221513 20 213 4.8 16.1 0.00 0.03 0.03 78 1020.6
20260903221006 19 208 3.2 11.3 0.00 0.03 0.03 82 1020.5
20260903220509 18 249 3.2 9.7 0.00 0.03 0.03 84 1020.5
20260903220000 18 251 3.2 9.7 0.00 0.03 0.03 88 1020.4
20260903215500 17 206 1.6 8.0 0.00 0.03 0.03 90 1020.4
20260903214958 17 195 1.6 8.0 0.00 0.03 0.03 91 1020.3
20260903214501 16 199 1.6 6.4 0.00 0.03 0.03 93 1020.3
20260903213931 16 219 3.2 6.4 0.00 0.03 0.03 93 1020.3
20260903213412 16 185 3.2 12.9 0.00 0.03 0.03 93 1020.2
20260903213135 15 246 3.2 12.9 0.00 0.03 0.03 94 1020.1
20260903212619 15 211 1.6 9.7 0.00 0.03 0.03 94 1020.0
20260903212124 15 225 1.6 9.7 0.00 0.03 0.03 94 1019.9
20260903211626 15 234 1.6 6.4 0.00 0.03 0.03 94 1019.8
20260903210856 14 224 0.0 4.8 0.00 0.03 0.03 93 1019.8
20260903210355 14 224 0.0 4.8 0.00 0.03 0.03 93 1019.7
20260903205851 13 189 0.0 3.2 0.00 0.03 0.03 93 1019.6
20260903205351 13 189 0.0 1.6 0.00 0.03 0.03 93 1019.6
20260903204852 13 189 0.0 1.6 0.00 0.03 0.03 92 1019.4
20260903204346 13 189 0.0 0.0 0.00 0.03 0.03 92 1019.4
20260903204103 13 189 0.0 0.0 0.00 0.03 0.03 92 1019.4
20260903203342 13 189 0.0 0.0 0.00 0.03 0.03 91 1019.4
20260903203105 13 189 0.0 0.0 0.00 0.03 0.03 91 1019.5
20260903202333 13 189 0.0 0.0 0.00 0.03 0.03 91 1019.3
20260903201833 13 189 0.0 0.0 0.00 0.03 0.03 91 1019.3
20260903201332 13 189 0.0 0.0 0.00 0.03 0.03 91 1019.2
20260903200831 13 189 0.0 0.0 0.00 0.03 0.03 91 1019.1
20260903200327 13 189 0.0 0.0 0.03 0.03 0.03 91 1019.0
20260903195826 13 189 0.0 0.0 0.03 0.03 0.03 91 1018.9
20260903195325 13 189 0.0 0.0 0.03 0.03 0.03 91 1018.9
20260903194821 13 189 0.0 0.0 0.03 0.03 0.03 91 1018.8
20260903194322 13 189 0.0 0.0 0.03 0.03 0.03 91 1018.8
20260903193820 13 189 0.0 0.0 0.03 0.03 0.03 91 1018.7
20260903193316 13 189 0.0 0.0 0.03 0.03 0.03 91 1018.7
20260903193033 13 189 0.0 0.0 0.03 0.03 0.03 91 1018.6
20260903192308 13 189 0.0 0.0 0.03 0.03 0.03 91 1018.6
20260903191806 13 189 0.0 1.6 0.03 0.03 0.03 90 1018.6
20260903191307 13 189 0.0 1.6 0.03 0.03 0.03 91 1018.7
20260903190749 13 189 0.0 0.0 0.03 0.03 0.03 91 1018.7
20260903190252 13 189 0.0 0.0 0.00 0.00 0.00 91 1018.6
20260903185722 13 189 0.0 0.0 0.00 0.00 0.00 90 1018.5
20260903185210 14 189 0.0 0.0 0.00 0.00 0.00 90 1018.4
20260903184708 14 189 0.0 0.0 0.00 0.00 0.00 90 1018.3
20260903184206 14 189 0.0 0.0 0.00 0.00 0.00 90 1018.2
20260903183925 14 189 0.0 0.0 0.00 0.00 0.00 90 1018.1
20260903183203 14 189 0.0 1.6 0.00 0.00 0.00 90 1018.1
20260903182659 14 189 0.0 3.2 0.00 0.00 0.00 90 1018.1
20260903182159 14 189 0.0 3.2 0.00 0.00 0.00 90 1018.1
20260903181700 14 189 0.0 0.0 0.00 0.00 0.00 90 1018.0
20260903181154 14 189 0.0 0.0 0.00 0.00 0.00 90 1018.0
20260903180910 14 189 0.0 0.0 0.00 0.00 0.00 89 1018.0
20260903180150 15 189 0.0 0.0 0.00 0.00 0.00 89 1018.0
20260903175651 15 189 0.0 0.0 0.00 0.00 0.00 89 1017.9
20260903175128 15 189 0.0 0.0 0.00 0.00 0.00 89 1017.9
20260903174855 15 189 0.0 0.0 0.00 0.00 0.00 89 1017.9
20260903174605 15 189 0.0 1.6 0.00 0.00 0.00 89 1018.0
20260903173621 15 189 0.0 3.2 0.00 0.00 0.00 89 1017.9
20260903173120 15 189 0.0 3.2 0.00 0.00 0.00 89 1017.9
20260903172614 15 189 0.0 3.2 0.00 0.00 0.00 89 1017.9
20260903172113 15 189 0.0 3.2 0.00 0.00 0.00 89 1017.8
20260903171609 15 189 0.0 0.0 0.00 0.00 0.00 89 1017.8
20260903171108 16 189 0.0 0.0 0.00 0.00 0.00 89 1017.7
20260903170832 16 189 0.0 3.2 0.00 0.00 0.00 89 1017.8
20260903170118 16 189 0.0 3.2 0.00 0.00 0.00 89 1017.7
20260903165601 16 189 0.0 4.8 0.00 0.00 0.00 88 1017.7
20260903165100 16 189 1.6 4.8 0.00 0.00 0.00 88 1017.8
20260903164814 16 333 0.0 3.2 0.00 0.00 0.00 88 1017.9
20260903164051 16 333 0.0 0.0 0.00 0.00 0.00 88 1017.7
20260903163549 16 333 0.0 0.0 0.00 0.00 0.00 88 1017.8
20260903163309 16 333 0.0 0.0 0.00 0.00 0.00 88 1017.8
20260903162523 17 333 0.0 0.0 0.00 0.00 0.00 88 1017.9
20260903162024 17 333 0.0 0.0 0.00 0.00 0.00 88 1018.0
20260903161519 17 333 0.0 0.0 0.00 0.00 0.00 88 1017.9
20260903161018 17 333 0.0 1.6 0.00 0.00 0.00 88 1018.0
20260903160512 17 333 0.0 1.6 0.00 0.00 0.00 88 1018.0
20260903160011 17 333 0.0 1.6 0.00 0.00 0.00 88 1017.9
20260903155507 17 333 0.0 1.6 0.00 0.00 0.00 88 1017.9
20260903155006 17 333 0.0 0.0 0.00 0.00 0.00 88 1018.0
20260903154504 18 333 0.0 0.0 0.00 0.00 0.00 88 1018.0
20260903154231 18 333 0.0 0.0 0.00 0.00 0.00 88 1018.0
20260903153501 18 333 0.0 0.0 0.00 0.00 0.00 88 1018.0
20260903153218 18 333 0.0 0.0 0.00 0.00 0.00 88 1018.0
20260903152450 18 333 0.0 0.0 0.00 0.00 0.00 88 1018.1
20260903151948 18 333 0.0 0.0 0.00 0.00 0.00 88 1018.0
20260903151447 18 333 0.0 8.0 0.00 0.00 0.00 89 1018.0
20260903150949 18 333 0.0 8.0 0.00 0.00 0.00 89 1018.1
20260903150435 18 333 1.6 8.0 0.00 0.00 0.00 89 1018.1
20260903145853 18 340 1.6 8.0 0.00 0.00 0.00 89 1018.1
20260903145329 18 339 3.2 8.0 0.00 0.00 0.00 89 1018.1
20260903144829 18 345 3.2 8.0 0.00 0.00 0.00 89 1018.0
20260903144323 18 1 3.2 6.4 0.00 0.00 0.00 88 1018.1
20260903144042 18 0 1.6 4.8 0.00 0.00 0.00 88 1018.1
20260903143318 18 0 0.0 3.2 0.00 0.00 0.00 88 1018.0
20260903142816 18 0 0.0 1.6 0.00 0.00 0.00 88 1018.1
20260903142315 18 0 0.0 0.0 0.00 0.00 0.00 88 1018.1
20260903141813 18 0 0.0 0.0 0.00 0.00 0.00 87 1018.1
20260903141311 18 0 0.0 0.0 0.00 0.00 0.00 87 1018.1
20260903140813 18 0 0.0 1.6 0.00 0.00 0.00 87 1018.2
20260903140311 18 0 0.0 3.2 0.00 0.00 0.00 87 1018.1
20260903135807 18 0 0.0 3.2 0.00 0.00 0.00 87 1018.0
20260903135306 19 0 0.0 3.2 0.00 0.00 0.00 87 1018.0
20260903135242 19 0 0.0 4.8 0.00 0.00 0.00 87 1018.0
20260903134305 19 0 0.0 3.2 0.00 0.00 0.00 87 1017.9
20260903133751 19 0 0.0 3.2 0.00 0.00 0.00 87 1017.9
20260903133515 19 0 0.0 3.2 0.00 0.00 0.00 87 1018.0
20260903132749 19 0 0.0 3.2 0.00 0.00 0.00 87 1018.0
20260903132248 19 0 1.6 4.8 0.00 0.00 0.00 88 1017.9
20260903131745 19 0 3.2 9.7 0.00 0.00 0.00 88 1018.0
20260903131243 19 351 3.2 9.7 0.00 0.00 0.00 87 1018.1
20260903131229 19 8 3.2 6.4 0.00 0.00 0.00 87 1018.1
20260903130240 20 333 3.2 11.3 0.00 0.00 0.00 88 1018.1
20260903125738 20 347 3.2 11.3 0.00 0.00 0.00 88 1018.1
20260903125237 20 9 3.2 12.9 0.00 0.00 0.00 88 1018.1
20260903124735 20 352 4.8 12.9 0.00 0.00 0.00 88 1018.1
20260903124227 20 357 4.8 12.9 0.00 0.00 0.00 88 1018.0
20260903124212 20 355 4.8 14.5 0.00 0.00 0.00 88 1018.1